Location: Clegg Observatory
(38.9178°N, 78.6069°W)
Time: 04:43:57
(UTC-04:00)

Daily predictions for brighter satellites

Satellite Brightness Start Highest point End
(mag) Time Altitude Azimuth Time Altitude Azimuth Time Altitude Azimuth
Cosmos 2263 Rocket 4.2 00:05:01 10° NW 00:07:11 22° NW 00:07:11 22° NW
Cosmos 2322 Rocket 4.4 00:14:22 18° WNW 00:14:51 19° NW 00:18:42 10° N
ATLAS CENTAUR R/B 4.3 00:42:25 73° WNW 00:43:10 76° NW 01:07:40 10° NE
Cosmos 2278 Rocket 4.4 00:52:55 10° NNW 00:54:50 21° N 00:54:50 21° N
Cosmos 2219 Rocket 4.4 01:49:28 20° N 01:49:28 20° N 01:51:25 10° N
SL-16 R/B 4.2 02:05:24 24° NNE 02:05:24 24° NNE 02:07:32 10° NNE
Cosmos 2237 Rocket 4.3 02:08:50 22° N 02:08:50 22° N 02:11:05 10° N
Cosmos 2333 Rocket 4.3 02:09:43 22° NNW 02:09:43 22° NNW 02:12:07 10° N
ATLAS 3B R/B 3.7 02:10:14 44° NNW 02:10:14 44° NNW 02:15:53 10° NNE
CZ-4C R/B 4.1 02:21:12 27° NNE 02:21:12 27° NNE 02:23:48 10° NNE
CZ-2D R/B 4.1 02:59:02 10° NE 03:02:30 21° E 03:02:30 21° E
USA 234 4.1 02:58:24 10° ENE 03:03:20 40° E 03:03:20 40° E
ARIANE 5 R/B 4.3 03:01:38 10° NE 03:05:07 27° ENE 03:05:07 27° ENE
Cosmos 1943 4.2 03:15:03 43° ENE 03:15:03 43° ENE 03:19:05 10° NNE
NOSS 3-2 (A) 3.9 03:20:43 56° N 03:20:43 56° N 03:26:08 10° NNE
Cosmos 2369 Rocket 2.9 03:19:57 10° NNW 03:24:37 50° NNE 03:24:37 50° NNE
NOSS 3-3 (A) 4.3 03:24:38 10° NNW 03:32:11 89° WSW 03:33:13 71° SSE
NOSS 3-3 (C) 4.3 03:24:44 10° NNW 03:32:17 89° WSW 03:33:31 67° SSE
CENTAUR R/B 3.6 03:32:55 31° ESE 03:33:27 31° ESE 03:39:08 10° NE
Resurs 1-4 Rocket 3.0 03:29:05 10° NNE 03:33:46 42° E 03:33:46 42° E
NOSS 3-2 (C) 3.7 03:37:46 61° NNW 03:37:46 61° NNW 03:43:46 10° NNE
Centaur D-1A AC-31 3.7 02:57:46 10° WSW 03:38:21 45° S 03:44:07 10° ESE
Cosmos 2251 Rocket 4.3 03:42:50 46° N 03:42:50 46° N 03:46:36 10° NNE
Cosmos 1943 Rocket 3.7 03:39:26 10° N 03:44:35 34° ENE 03:49:39 10° SE
SL-16 R/B 4.4 03:47:17 14° NW 03:47:17 14° NW 03:49:44 10° NNW
Okean O Rocket 4.0 03:44:15 10° NE 03:47:05 16° E 03:48:35 14° ESE
Cosmos 2315 Rocket 4.1 03:51:10 61° SE 03:52:01 69° E 03:58:16 10° NNE
Cosmos 2263 4.2 03:56:00 10° NNW 04:01:50 79° ENE 04:03:20 51° SE
ERS-2 4.3 03:58:59 10° N 04:00:25 22° N 04:00:25 22° N
Cosmos 839 Rocket 4.2 03:57:59 10° NW 04:05:50 65° WSW 04:06:15 63° SW
CZ-4C R/B 4.1 04:06:22 18° NW 04:07:21 18° NW 04:11:27 10° N
Cosmos 494 Rocket 4.5 04:11:19 48° NW 04:11:19 48° NW 04:15:46 10° N
ATLAS 5 CENTAUR R/B 1.8 04:15:17 73° NNW 04:15:17 73° NNW 04:20:15 10° NNE
Meteor 2-10 4.1 04:20:35 62° W 04:20:37 62° W 04:26:00 10° N
Cosmos 2242 Rocket 4.4 04:22:03 41° NW 04:22:03 41° NW 04:25:23 10° N
Cosmos 1862 Rocket 3.6 04:21:36 75° E 04:21:36 75° E 04:25:57 10° N
SL-16 R/B 2.5 04:23:32 56° SW 04:24:15 60° WSW 04:30:23 10° NNW
Cosmos 1302 Rocket 4.0 04:24:11 10° NNW 04:28:59 59° W 04:28:59 59° W
EO 1 Del DPAF 4.1 04:35:16 40° NNW 04:35:16 40° NNW 04:37:54 10° NNW
Cosmos 1862 4.3 04:33:47 10° N 04:37:37 45° E 04:41:07 12° SSE
UNKNOWN OBJECT B 3.3 04:34:00 10° N 04:36:50 45° NNW 04:36:50 45° NNW
IRS-1D 4.1 04:32:51 10° N 04:37:43 40° WNW 04:37:54 40° WNW
CZ-2C R/B 4.3 04:35:07 10° SSE 04:39:27 55° ENE 04:43:47 10° N
Cosmos 1709 Rocket 4.2 04:34:16 10° NNW 04:40:20 49° W 04:41:40 42° SW
CZ-2D R/B 2.5 04:38:17 10° N 04:43:15 43° WNW 04:43:49 42° W
Cosmos 1184 Rocket 4.4 04:40:48 10° NNW 04:42:34 28° NNW 04:42:34 28° NNW
Cosmos 1869 3.6 04:44:49 50° NW 04:44:49 50° NW 04:48:15 10° N
SeaSat 1 2.7 04:39:37 10° SE 04:44:31 71° ENE 04:49:26 10° NNW
ARIANE 5 R/B 3.4 04:40:39 10° N 04:45:14 32° WNW 04:45:27 32° WNW
USA 234 3.6 04:41:20 10° NE 04:47:39 52° NW 04:50:41 30° W
Cosmos 1733 Rocket 3.2 04:43:34 10° NNW 04:47:36 50° W 04:47:36 50° W
Cosmos 389 Rocket 2.8 04:49:10 50° NW 04:49:10 50° NW 04:52:05 10° N
Cosmos 1933 3.3 04:54:18 39° S 04:55:47 90° E 04:59:54 10° N
GPS 2-05 Rocket1 4.4 04:59:49 22° SSE 04:59:49 22° SSE 05:02:24 10° ESE
CZ-4B R/B 2.9 04:56:39 10° NNE 05:00:20 69° ESE 05:02:25 25° S
COSMOS 2406 3.2 04:58:36 29° SSW 05:01:40 80° WNW 05:07:27 10° NNE
Cosmos 2074 Rocket 3.9 04:56:53 10° N 05:03:05 75° W 05:09:18 10° S
Cosmos 2327 Rocket 4.4 04:59:04 10° N 05:05:10 74° W 05:11:19 10° S
Atlas Centaur 2 3.3 05:04:52 17° S 05:06:08 19° SSE 05:09:38 10° ESE
MOZ.5/SAFIR/RUBIN 5/SL-8 3.6 05:03:11 10° S 05:07:46 66° W 05:12:24 10° NNW
Cosmos 2184 Rocket 4.0 05:01:57 10° NNW 05:08:19 71° W 05:14:36 10° S
Cosmos 2369 Rocket 4.0 05:05:11 10° WNW 05:06:18 14° WNW 05:06:18 14° WNW
COSMOS 2487 3.6 05:07:09 14° S 05:09:57 42° ESE 05:13:23 10° NNE
Aureole 3 Rocket 4.0 05:02:47 10° S 05:10:01 81° E 05:15:06 10° N
Cosmos 1174 4.4 05:07:43 30° SW 05:10:21 66° WNW 05:14:49 10° NNE
Cosmos 1455 4.0 05:12:01 18° WNW 05:12:01 18° WNW 05:14:05 10° NNW
CZ-2D R/B 4.3 05:08:41 10° N 05:12:37 33° WNW 05:13:35 30° W
Resurs 1-4 Rocket 3.3 05:09:35 10° NNW 05:13:38 23° WNW 05:14:50 21° W
Cosmos 1190 Rocket 4.0 05:10:40 15° SSW 05:14:59 80° ESE 05:20:12 10° NNE
CZ-4B R/B 3.0 05:09:49 10° N 05:15:08 77° WNW 05:19:40 14° SSW
CZ-4B DEB 4.1 05:10:04 10° NNE 05:15:33 83° WNW 05:20:46 11° SSW
Cosmos 1908 Rocket 3.6 05:13:18 10° NNW 05:17:35 54° W 05:21:49 10° S
ADEOS Rocket 4.0 05:09:56 10° NNE 05:17:41 67° ESE 05:25:18 10° S
CZ-3 R/B 4.4 04:31:32 10° W 05:17:51 44° SW 05:29:09 10° SSE
SL-08 ROCKET BODY 4.4 05:13:01 10° NNW 05:18:57 61° W 05:24:58 10° S
Thor Agena Rocket 3.5 05:16:23 10° SSE 05:21:31 88° WSW 05:26:46 10° NNW
Abrixas rocket 4.3 05:18:44 10° NW 05:21:37 26° NNE 05:24:31 10° E
Cosmos 1610 Rocket 4.4 05:16:56 10° N 05:23:17 76° W 05:29:31 10° S
Cosmos 1992 Rocket 3.9 05:18:19 10° NNW 05:23:31 65° WSW 05:28:40 10° S
Okean O Rocket 2.1 05:19:24 10° N 05:23:38 42° WNW 05:26:03 22° SW
CENTAUR R/B 3.0 05:20:07 23° WSW 05:23:47 46° NW 05:30:24 10° NNE
Cosmos 2221 Rocket 3.6 05:20:58 16° SSW 05:24:24 63° W 05:28:48 10° N
ADEOS II 2.6 05:21:22 10° NNE 05:26:34 60° E 05:31:45 10° S
SL-27 R/B 3.9 05:27:08 22° W 05:27:47 23° WNW 05:30:45 10° N
Cosmos 1943 Rocket 2.8 05:23:15 10° NW 05:28:14 32° WSW 05:33:09 10° SSW
Cosmos 2341 Rocket 4.4 05:23:35 10° N 05:29:52 68° E 05:36:11 10° SSE
Okean-O 2.9 05:26:18 10° NNE 05:30:45 71° ESE 05:35:09 10° S
USA 32 4.1 05:25:58 10° SSW 05:31:06 57° W 05:36:16 10° N
Cosmos 1408 3.3 05:30:01 10° NNW 05:33:26 34° W 05:36:27 12° SSW
Cosmos 1703 Rocket 4.0 05:30:57 17° SW 05:34:09 43° W 05:38:27 10° N
PSLV R/B 3.2 05:32:00 18° WNW 05:34:27 88° NNE 05:37:51 10° ESE
Cosmos 2285 Rocket 4.2 05:33:54 10° NNW 05:40:01 48° WSW 05:46:04 10° S
Cosmos 1825 3.4 05:44:23 10° NW 05:47:25 23° W 05:50:26 10° SW
Cosmos 2151 Rocket 4.0 05:47:04 10° N 05:51:27 68° E 05:55:49 10° SSE
USA 116 4.3 05:47:19 10° S 05:52:03 77° WSW 05:57:19 10° NNW
Cosmos 676 Rocket 3.9 05:47:43 10° SSW 05:52:53 78° WNW 05:58:06 10° NNE
PSLV R/B 3.7 05:49:36 10° N 05:53:54 55° WNW 05:58:10 10° SSW
Meteor 1-31 Rocket 3.3 05:50:33 10° NNE 05:54:19 62° E 05:58:05 10° S
Cosmos 1656 Rocket 4.0 05:52:30 10° NW 05:57:29 38° WSW 06:02:27 10° S
ATLAS 5 CENTAUR R/B 4.0 05:58:12 10° WNW 06:00:46 14° NNW 06:03:25 10° N
NAVSTAR 52 R/B(PAM-D 2.7 06:00:59 14° W 06:02:20 54° S 06:03:58 10° ESE
Meteor 1-25 Rocket 4.3 05:57:35 10° N 06:03:10 86° E 06:08:45 10° S
CZ-4B R/B 4.3 06:01:28 10° NNE 06:06:00 84° ESE 06:10:25 10° S
Meteor 2-13 Rocket 4.4 06:00:37 10° NNW 06:06:38 70° W 06:12:37 10° S
Okean 1-7 4.0 06:04:48 10° SW 06:08:31 28° WNW 06:12:17 10° NNW
Cosmos 407 Rocket 4.1 06:05:27 10° SW 06:10:18 39° WNW 06:15:16 10° N
Meteor 1-20 Rocket 4.4 06:07:02 10° N 06:12:46 89° E 06:18:33 10° S
Okean 2 Rocket 4.1 06:11:51 10° NNW 06:15:37 27° W 06:19:24 10° SW
